Time,TemperatureF,DewpointF,PressureIn,WindDirection,WindDirectionDegrees,WindSpeedMPH,WindSpeedGustMPH,Humidity,HourlyPrecipIn,Conditions,Clouds,dailyrainin,SoftwareType,DateUTC
2013-08-17 00:01:00,61.6,52.5,30.12,South,180,0.4,1.3,72,0.00,,,0.00,WUHU216HW,2013-08-17 05:01:00,
2013-08-17 00:06:00,61.4,52.7,30.12,South,180,0.0,1.3,73,0.00,,,0.00,WUHU216HW,2013-08-17 05:06:00,
2013-08-17 00:11:00,61.2,52.6,30.12,South,180,0.0,0.4,73,0.00,,,0.00,WUHU216HW,2013-08-17 05:11:00,
2013-08-17 00:16:00,61.0,52.0,30.12,South,180,0.0,0.0,72,0.00,,,0.00,WUHU216HW,2013-08-17 05:16:00,
2013-08-17 00:21:00,60.8,51.8,30.12,South,180,0.0,0.0,72,0.00,,,0.00,WUHU216HW,2013-08-17 05:21:00,
2013-08-17 00:26:00,60.5,51.5,30.12,South,180,0.0,0.0,72,0.00,,,0.00,WUHU216HW,2013-08-17 05:26:00,
2013-08-17 00:31:00,60.1,51.5,30.12,South,180,0.0,0.0,73,0.00,,,0.00,WUHU216HW,2013-08-17 05:31:00,
2013-08-17 00:36:00,60.1,52.9,30.12,West,270,1.1,1.1,77,0.00,,,0.00,WUHU216HW,2013-08-17 05:36:00,
2013-08-17 00:41:00,60.1,52.9,30.13,WNW,293,1.1,1.8,77,0.00,,,0.00,WUHU216HW,2013-08-17 05:41:00,
2013-08-17 00:46:00,60.1,52.2,30.13,WNW,293,0.4,1.8,75,0.00,,,0.00,WUHU216HW,2013-08-17 05:46:00,
2013-08-17 00:51:00,59.9,52.0,30.12,North,0,1.3,1.6,75,0.00,,,0.00,WUHU216HW,2013-08-17 05:51:00,
2013-08-17 00:56:00,59.8,52.2,30.12,North,0,0.7,1.6,76,0.00,,,0.00,WUHU216HW,2013-08-17 05:56:00,
2013-08-17 01:01:00,59.4,51.8,30.12,North,0,0.0,1.3,76,0.00,,,0.00,WUHU216HW,2013-08-17 06:01:00,
2013-08-17 01:06:00,59.0,51.5,30.13,NNW,338,0.4,1.1,76,0.00,,,0.00,WUHU216HW,2013-08-17 06:06:00,
2013-08-17 01:11:00,58.9,51.3,30.13,NNW,338,0.0,1.1,76,0.00,,,0.00,WUHU216HW,2013-08-17 06:11:00,
2013-08-17 01:16:00,58.7,51.5,30.13,NNW,338,0.0,0.4,77,0.00,,,0.00,WUHU216HW,2013-08-17 06:16:00,
2013-08-17 01:21:00,58.5,50.9,30.13,NNW,338,0.0,0.0,76,0.00,,,0.00,WUHU216HW,2013-08-17 06:21:00,
2013-08-17 01:26:00,58.1,50.9,30.13,NNW,338,1.1,1.1,77,0.00,,,0.00,WUHU216HW,2013-08-17 06:26:00,
2013-08-17 01:31:00,58.0,50.4,30.13,NNW,338,0.2,1.1,76,0.00,,,0.00,WUHU216HW,2013-08-17 06:31:00,
2013-08-17 01:36:00,57.8,50.6,30.12,NNW,338,0.0,1.1,77,0.00,,,0.00,WUHU216HW,2013-08-17 06:36:00,
2013-08-17 01:41:00,57.6,50.4,30.12,NNW,338,0.0,0.2,77,0.00,,,0.00,WUHU216HW,2013-08-17 06:41:00,
2013-08-17 01:46:00,57.6,50.4,30.12,NNW,338,0.0,0.0,77,0.00,,,0.00,WUHU216HW,2013-08-17 06:46:00,
2013-08-17 01:50:00,57.2,50.0,30.12,NNW,338,0.0,0.0,77,0.00,,,0.00,WUHU216HW,2013-08-17 06:50:00,
2013-08-17 01:55:00,57.2,50.8,30.12,NNW,338,0.0,0.0,79,0.00,,,0.00,WUHU216HW,2013-08-17 06:55:00,
2013-08-17 02:00:00,57.1,50.6,30.12,NNW,338,0.0,0.0,79,0.00,,,0.00,WUHU216HW,2013-08-17 07:00:00,
2013-08-17 02:05:00,56.9,50.4,30.12,NNW,338,0.0,0.0,79,0.00,,,0.00,WUHU216HW,2013-08-17 07:05:00,
2013-08-17 02:10:00,56.9,50.4,30.13,NNW,338,0.0,0.0,79,0.00,,,0.00,WUHU216HW,2013-08-17 07:10:00,
2013-08-17 02:15:00,56.7,50.2,30.12,NNW,338,0.0,0.0,79,0.00,,,0.00,WUHU216HW,2013-08-17 07:15:00,
2013-08-17 02:20:00,56.7,50.2,30.12,NNW,338,0.0,0.0,79,0.00,,,0.00,WUHU216HW,2013-08-17 07:20:00,
2013-08-17 02:25:00,56.5,50.0,30.12,NNW,338,0.0,0.0,79,0.00,,,0.00,WUHU216HW,2013-08-17 07:25:00,
2013-08-17 02:30:00,56.3,49.9,30.12,NNW,338,0.0,0.0,79,0.00,,,0.00,WUHU216HW,2013-08-17 07:30:00,
2013-08-17 02:35:00,56.2,49.7,30.12,NNW,338,0.0,0.0,79,0.00,,,0.00,WUHU216HW,2013-08-17 07:35:00,
2013-08-17 02:40:00,56.0,49.5,30.12,NNW,338,0.0,0.0,79,0.00,,,0.00,WUHU216HW,2013-08-17 07:40:00,
2013-08-17 02:45:00,55.8,49.3,30.12,NNW,338,0.0,0.0,79,0.00,,,0.00,WUHU216HW,2013-08-17 07:45:00,
2013-08-17 02:50:00,55.6,49.1,30.12,NNW,338,0.0,0.0,79,0.00,,,0.00,WUHU216HW,2013-08-17 07:50:00,
2013-08-17 02:55:00,55.4,48.6,30.12,NNW,338,0.0,0.0,78,0.00,,,0.00,WUHU216HW,2013-08-17 07:55:00,
2013-08-17 03:00:00,55.4,49.0,30.12,NNW,338,0.0,0.0,79,0.00,,,0.00,WUHU216HW,2013-08-17 08:00:00,
2013-08-17 03:05:00,55.3,48.8,30.13,NNW,338,0.0,0.0,79,0.00,,,0.00,WUHU216HW,2013-08-17 08:05:00,
2013-08-17 03:10:00,55.3,48.8,30.12,NNW,338,0.0,0.0,79,0.00,,,0.00,WUHU216HW,2013-08-17 08:10:00,
2013-08-17 03:15:00,55.1,49.0,30.13,NNW,338,0.0,0.2,80,0.00,,,0.00,WUHU216HW,2013-08-17 08:15:00,
2013-08-17 03:20:00,55.1,49.0,30.13,NNW,338,0.7,1.1,80,0.00,,,0.00,WUHU216HW,2013-08-17 08:20:00,
2013-08-17 03:25:00,55.3,49.1,30.13,NNW,338,0.9,1.1,80,0.00,,,0.00,WUHU216HW,2013-08-17 08:25:00,
2013-08-17 03:30:00,55.1,49.3,30.13,North,0,1.1,1.3,81,0.00,,,0.00,WUHU216HW,2013-08-17 08:30:00,
2013-08-17 03:35:00,55.1,49.0,30.13,North,0,0.2,1.3,80,0.00,,,0.00,WUHU216HW,2013-08-17 08:35:00,
2013-08-17 03:40:00,55.1,49.0,30.13,North,0,0.0,1.1,80,0.00,,,0.00,WUHU216HW,2013-08-17 08:40:00,
2013-08-17 03:45:00,54.9,48.9,30.13,North,0,0.0,0.2,80,0.00,,,0.00,WUHU216HW,2013-08-17 08:45:00,
2013-08-17 03:50:00,54.9,48.9,30.13,North,0,0.0,0.0,80,0.00,,,0.00,WUHU216HW,2013-08-17 08:50:00,
2013-08-17 03:55:00,54.7,49.0,30.13,North,0,0.0,0.2,81,0.00,,,0.00,WUHU216HW,2013-08-17 08:55:00,
2013-08-17 04:00:00,54.4,48.3,30.13,North,0,0.0,0.2,80,0.00,,,0.00,WUHU216HW,2013-08-17 09:00:00,
2013-08-17 04:05:00,54.4,48.7,30.13,North,0,0.0,0.0,81,0.00,,,0.00,WUHU216HW,2013-08-17 09:05:00,
2013-08-17 04:10:00,54.4,49.0,30.13,North,0,0.0,0.0,82,0.00,,,0.00,WUHU216HW,2013-08-17 09:10:00,
2013-08-17 04:15:00,54.4,48.7,30.14,SE,135,0.4,1.3,81,0.00,,,0.00,WUHU216HW,2013-08-17 09:15:00,
2013-08-17 04:20:00,54.4,49.0,30.14,SE,135,0.7,1.3,82,0.00,,,0.00,WUHU216HW,2013-08-17 09:20:00,
2013-08-17 04:25:00,54.5,50.1,30.13,NW,315,0.4,1.3,85,0.00,,,0.00,WUHU216HW,2013-08-17 09:25:00,
2013-08-17 04:30:00,54.7,49.6,30.14,West,270,0.0,1.3,83,0.00,,,0.00,WUHU216HW,2013-08-17 09:30:00,
2013-08-17 04:35:00,54.5,49.4,30.14,West,270,0.0,0.4,83,0.00,,,0.00,WUHU216HW,2013-08-17 09:35:00,
2013-08-17 04:40:00,54.5,49.1,30.14,West,270,0.0,0.0,82,0.00,,,0.00,WUHU216HW,2013-08-17 09:40:00,
2013-08-17 04:45:00,54.5,49.1,30.14,SSE,158,0.7,0.7,82,0.00,,,0.00,WUHU216HW,2013-08-17 09:45:00,
2013-08-17 04:50:00,54.4,49.0,30.14,SSE,158,0.0,0.7,82,0.00,,,0.00,WUHU216HW,2013-08-17 09:50:00,
2013-08-17 04:55:00,54.2,48.8,30.14,SSE,158,0.7,0.9,82,0.00,,,0.00,WUHU216HW,2013-08-17 09:55:00,
2013-08-17 05:00:00,54.4,49.3,30.14,SSE,158,0.0,0.9,83,0.00,,,0.00,WUHU216HW,2013-08-17 10:00:00,
2013-08-17 05:05:00,54.4,49.3,30.14,SE,135,1.1,1.3,83,0.00,,,0.00,WUHU216HW,2013-08-17 10:05:00,
2013-08-17 05:10:00,54.4,49.0,30.14,SE,135,0.7,1.8,82,0.00,,,0.00,WUHU216HW,2013-08-17 10:10:00,
2013-08-17 05:15:00,54.2,48.8,30.14,SE,135,0.0,1.8,82,0.00,,,0.00,WUHU216HW,2013-08-17 10:15:00,
2013-08-17 05:20:00,54.0,48.6,30.14,SE,135,0.0,0.7,82,0.00,,,0.00,WUHU216HW,2013-08-17 10:20:00,
2013-08-17 05:25:00,53.6,48.6,30.14,ESE,113,1.1,1.3,83,0.00,,,0.00,WUHU216HW,2013-08-17 10:25:00,
2013-08-17 05:30:00,53.6,49.0,30.14,ESE,113,0.4,1.3,84,0.00,,,0.00,WUHU216HW,2013-08-17 10:30:00,
2013-08-17 05:35:00,53.6,49.0,30.14,SSE,158,0.0,1.3,84,0.00,,,0.00,WUHU216HW,2013-08-17 10:35:00,
2013-08-17 05:40:00,53.6,49.0,30.14,SSE,158,0.7,1.3,84,0.00,,,0.00,WUHU216HW,2013-08-17 10:40:00,
2013-08-17 05:45:00,53.6,49.0,30.14,SSE,158,0.0,0.9,84,0.00,,,0.00,WUHU216HW,2013-08-17 10:45:00,
2013-08-17 05:50:00,53.6,49.0,30.14,SSE,158,0.0,0.7,84,0.00,,,0.00,WUHU216HW,2013-08-17 10:50:00,
2013-08-17 05:55:00,53.6,49.0,30.15,SSE,158,0.4,0.7,84,0.00,,,0.00,WUHU216HW,2013-08-17 10:55:00,
2013-08-17 06:00:00,53.6,49.0,30.15,SSE,158,0.0,0.7,84,0.00,,,0.00,WUHU216HW,2013-08-17 11:00:00,
2013-08-17 06:05:00,53.6,49.0,30.15,SSE,158,0.0,0.7,84,0.00,,,0.00,WUHU216HW,2013-08-17 11:05:00,
2013-08-17 06:10:00,53.6,49.0,30.15,SSE,158,0.0,0.0,84,0.00,,,0.00,WUHU216HW,2013-08-17 11:10:00,
2013-08-17 06:15:00,53.5,48.8,30.15,SSE,158,0.0,0.0,84,0.00,,,0.00,WUHU216HW,2013-08-17 11:15:00,
2013-08-17 06:20:00,53.5,48.8,30.15,SSE,158,0.0,0.0,84,0.00,,,0.00,WUHU216HW,2013-08-17 11:20:00,
2013-08-17 06:25:00,53.6,49.0,30.15,SSE,158,0.0,0.0,84,0.00,,,0.00,WUHU216HW,2013-08-17 11:25:00,
2013-08-17 06:30:00,53.6,49.0,30.15,SSE,158,0.0,0.0,84,0.00,,,0.00,WUHU216HW,2013-08-17 11:30:00,
2013-08-17 06:35:00,53.8,49.1,30.15,SSE,158,0.0,0.0,84,0.00,,,0.00,WUHU216HW,2013-08-17 11:35:00,
2013-08-17 06:40:00,54.7,50.2,30.15,SSE,158,0.0,0.0,85,0.00,,,0.00,WUHU216HW,2013-08-17 11:40:00,
2013-08-17 06:45:00,56.5,52.0,30.15,SE,135,0.0,0.0,85,0.00,,,0.00,WUHU216HW,2013-08-17 11:45:00,
2013-08-17 06:50:00,58.0,53.1,30.15,SSW,203,1.1,1.1,84,0.00,,,0.00,WUHU216HW,2013-08-17 11:50:00,
2013-08-17 06:55:00,59.8,54.6,30.15,SW,225,0.0,4.0,83,0.00,,,0.00,WUHU216HW,2013-08-17 11:55:00,
2013-08-17 07:00:00,61.9,56.1,30.15,SW,225,0.0,4.0,81,0.00,,,0.00,WUHU216HW,2013-08-17 12:00:00,
2013-08-17 07:05:00,63.7,57.4,30.15,SW,225,0.0,0.0,80,0.00,,,0.00,WUHU216HW,2013-08-17 12:05:00,
2013-08-17 07:06:00,63.9,57.2,30.15,SW,225,0.0,0.0,79,0.00,,,0.00,WUHU216HW,2013-08-17 12:06:00,
2013-08-17 07:11:00,65.2,57.4,30.16,SW,225,0.0,0.0,76,0.00,,,0.00,WUHU216HW,2013-08-17 12:11:00,
2013-08-17 07:16:00,65.2,57.1,30.15,SW,225,0.9,0.9,75,0.00,,,0.00,WUHU216HW,2013-08-17 12:16:00,
2013-08-17 07:21:00,64.8,56.4,30.15,SSE,158,1.1,2.2,74,0.00,,,0.00,WUHU216HW,2013-08-17 12:21:00,
2013-08-17 07:26:00,64.4,56.0,30.16,SSE,158,1.3,2.2,74,0.00,,,0.00,WUHU216HW,2013-08-17 12:26:00,
2013-08-17 07:31:00,64.1,56.0,30.16,SSE,158,1.6,2.0,75,0.00,,,0.00,WUHU216HW,2013-08-17 12:31:00,
2013-08-17 07:36:00,63.9,56.2,30.16,SSE,158,4.9,5.8,76,0.00,,,0.00,WUHU216HW,2013-08-17 12:36:00,
2013-08-17 07:41:00,63.7,56.0,30.16,SE,135,2.7,5.8,76,0.00,,,0.00,WUHU216HW,2013-08-17 12:41:00,
2013-08-17 07:46:00,64.1,56.3,30.16,SE,135,2.5,5.6,76,0.00,,,0.00,WUHU216HW,2013-08-17 12:46:00,
2013-08-17 07:51:00,64.6,56.9,30.16,SE,135,1.1,4.5,76,0.00,,,0.00,WUHU216HW,2013-08-17 12:51:00,
2013-08-17 07:56:00,65.0,57.3,30.16,SSE,158,0.9,2.5,76,0.00,,,0.00,WUHU216HW,2013-08-17 12:56:00,
2013-08-17 08:01:00,65.5,57.3,30.16,South,180,1.1,2.5,75,0.00,,,0.00,WUHU216HW,2013-08-17 13:01:00,
2013-08-17 08:06:00,65.9,57.3,30.17,SSE,158,0.4,2.7,74,0.00,,,0.00,WUHU216HW,2013-08-17 13:06:00,
2013-08-17 08:10:00,66.4,57.9,30.17,SSW,203,2.0,2.7,74,0.00,,,0.00,WUHU216HW,2013-08-17 13:10:00,
2013-08-17 08:15:00,66.8,58.2,30.17,SSE,158,1.1,2.5,74,0.00,,,0.00,WUHU216HW,2013-08-17 13:15:00,
2013-08-17 08:20:00,67.3,58.0,30.17,SW,225,1.3,2.2,72,0.00,,,0.00,WUHU216HW,2013-08-17 13:20:00,
2013-08-17 08:25:00,68.0,58.7,30.17,South,180,1.8,4.5,72,0.00,,,0.00,WUHU216HW,2013-08-17 13:25:00,
2013-08-17 08:30:00,68.6,58.4,30.17,SSE,158,2.5,4.5,70,0.00,,,0.00,WUHU216HW,2013-08-17 13:30:00,
2013-08-17 08:35:00,69.1,58.5,30.17,SSE,158,3.4,5.4,69,0.00,,,0.00,WUHU216HW,2013-08-17 13:35:00,
2013-08-17 08:40:00,69.5,58.4,30.17,SSE,158,2.5,5.8,68,0.00,,,0.00,WUHU216HW,2013-08-17 13:40:00,
2013-08-17 08:45:00,69.8,58.8,30.17,East,90,3.6,6.3,68,0.00,,,0.00,WUHU216HW,2013-08-17 13:45:00,
2013-08-17 08:50:00,70.4,58.4,30.17,South,180,4.5,6.3,66,0.00,,,0.00,WUHU216HW,2013-08-17 13:50:00,
2013-08-17 08:55:00,70.7,58.8,30.17,SSE,158,2.2,6.3,66,0.00,,,0.00,WUHU216HW,2013-08-17 13:55:00,
2013-08-17 09:00:00,71.3,58.9,30.17,SW,225,4.7,6.5,65,0.00,,,0.00,WUHU216HW,2013-08-17 14:00:00,
2013-08-17 09:05:00,71.6,59.2,30.17,SSW,203,2.2,6.5,65,0.00,,,0.00,WUHU216HW,2013-08-17 14:05:00,
2013-08-17 09:10:00,72.0,59.1,30.17,SSW,203,3.8,6.9,64,0.00,,,0.00,WUHU216HW,2013-08-17 14:10:00,
2013-08-17 09:15:00,72.4,58.1,30.17,SSW,203,3.4,6.9,61,0.00,,,0.00,WUHU216HW,2013-08-17 14:15:00,
2013-08-17 09:20:00,72.4,59.1,30.17,SSE,158,3.4,6.7,63,0.00,,,0.00,WUHU216HW,2013-08-17 14:20:00,
2013-08-17 09:25:00,72.9,58.2,30.17,SE,135,3.8,8.5,60,0.00,,,0.00,WUHU216HW,2013-08-17 14:25:00,
2013-08-17 09:30:00,73.3,58.5,30.17,SE,135,1.8,8.5,60,0.00,,,0.00,WUHU216HW,2013-08-17 14:30:00,
2013-08-17 09:35:00,73.4,58.1,30.17,SE,135,3.4,9.2,59,0.00,,,0.00,WUHU216HW,2013-08-17 14:35:00,
2013-08-17 09:40:00,73.4,57.2,30.17,SE,135,7.4,9.4,57,0.00,,,0.00,WUHU216HW,2013-08-17 14:40:00,
2013-08-17 09:45:00,73.6,57.9,30.17,SSW,203,3.6,9.4,58,0.00,,,0.00,WUHU216HW,2013-08-17 14:45:00,
2013-08-17 09:50:00,74.0,57.3,30.17,SE,135,4.7,7.4,56,0.00,,,0.00,WUHU216HW,2013-08-17 14:50:00,
2013-08-17 09:55:00,74.0,59.2,30.17,SSW,203,1.8,7.8,60,0.00,,,0.00,WUHU216HW,2013-08-17 14:55:00,
2013-08-17 10:00:00,74.5,57.8,30.17,SE,135,4.3,7.8,56,0.00,,,0.00,WUHU216HW,2013-08-17 15:00:00,
2013-08-17 10:05:00,74.9,58.2,30.17,SSW,203,1.1,6.3,56,0.00,,,0.00,WUHU216HW,2013-08-17 15:05:00,
2013-08-17 10:10:00,75.6,57.8,30.17,South,180,4.5,7.4,54,0.00,,,0.00,WUHU216HW,2013-08-17 15:10:00,
2013-08-17 10:15:00,76.1,57.2,30.17,SE,135,1.6,7.4,52,0.00,,,0.00,WUHU216HW,2013-08-17 15:15:00,
2013-08-17 10:20:00,76.3,56.9,30.17,SE,135,2.5,6.3,51,0.00,,,0.00,WUHU216HW,2013-08-17 15:20:00,
2013-08-17 10:25:00,76.7,56.7,30.17,WSW,248,4.0,6.3,50,0.00,,,0.00,WUHU216HW,2013-08-17 15:25:00,
2013-08-17 10:30:00,77.0,56.4,30.17,SSE,158,4.5,5.1,49,0.00,,,0.00,WUHU216HW,2013-08-17 15:30:00,
2013-08-17 10:35:00,77.4,56.2,30.17,SE,135,7.6,9.2,48,0.00,,,0.00,WUHU216HW,2013-08-17 15:35:00,
2013-08-17 10:40:00,77.6,55.1,30.17,WSW,248,6.0,9.2,46,0.00,,,0.00,WUHU216HW,2013-08-17 15:40:00,
2013-08-17 10:45:00,77.0,55.3,30.17,ENE,68,4.0,8.7,47,0.00,,,0.00,WUHU216HW,2013-08-17 15:45:00,
2013-08-17 10:50:00,77.4,56.2,30.17,SSE,158,8.1,8.7,48,0.00,,,0.00,WUHU216HW,2013-08-17 15:50:00,
2013-08-17 10:55:00,77.4,56.2,30.17,East,90,7.4,13.0,48,0.00,,,0.00,WUHU216HW,2013-08-17 15:55:00,
2013-08-17 11:00:00,77.9,56.1,30.17,SE,135,9.2,18.8,47,0.00,,,0.00,WUHU216HW,2013-08-17 16:00:00,
2013-08-17 11:05:00,78.1,56.2,30.17,ESE,113,5.4,18.8,47,0.00,,,0.00,WUHU216HW,2013-08-17 16:05:00,
2013-08-17 11:10:00,78.3,56.3,30.17,SE,135,8.5,9.2,47,0.00,,,0.00,WUHU216HW,2013-08-17 16:10:00,
2013-08-17 11:15:00,78.1,56.2,30.17,ESE,113,9.6,9.6,47,0.00,,,0.00,WUHU216HW,2013-08-17 16:15:00,
2013-08-17 11:20:00,78.1,56.8,30.17,SE,135,4.0,13.4,48,0.00,,,0.00,WUHU216HW,2013-08-17 16:20:00,
2013-08-17 11:25:00,78.8,56.9,30.16,SE,135,5.6,13.4,47,0.00,,,0.00,WUHU216HW,2013-08-17 16:25:00,
2013-08-17 11:30:00,79.2,56.5,30.16,SSW,203,5.4,13.4,46,0.00,,,0.00,WUHU216HW,2013-08-17 16:30:00,
2013-08-17 11:35:00,79.2,57.2,30.16,SSE,158,8.9,11.6,47,0.00,,,0.00,WUHU216HW,2013-08-17 16:35:00,
2013-08-17 11:40:00,79.6,56.3,30.16,ESE,113,4.5,9.8,45,0.00,,,0.00,WUHU216HW,2013-08-17 16:40:00,
2013-08-17 11:45:00,79.6,55.6,30.16,SSE,158,8.9,11.4,44,0.00,,,0.00,WUHU216HW,2013-08-17 16:45:00,
2013-08-17 11:50:00,79.6,56.9,30.16,SSE,158,1.3,11.4,46,0.00,,,0.00,WUHU216HW,2013-08-17 16:50:00,
2013-08-17 11:55:00,79.9,57.3,30.16,South,180,2.5,9.6,46,0.00,,,0.00,WUHU216HW,2013-08-17 16:55:00,
2013-08-17 12:00:00,80.3,55.7,30.16,ESE,113,6.9,9.2,43,0.00,,,0.00,WUHU216HW,2013-08-17 17:00:00,
2013-08-17 12:05:00,79.4,55.5,30.16,ENE,68,4.7,9.2,44,0.00,,,0.00,WUHU216HW,2013-08-17 17:05:00,
2013-08-17 12:10:00,79.0,55.8,30.16,SE,135,6.3,11.6,45,0.00,,,0.00,WUHU216HW,2013-08-17 17:10:00,
2013-08-17 12:15:00,79.2,56.5,30.16,SSE,158,4.9,11.6,46,0.00,,,0.00,WUHU216HW,2013-08-17 17:15:00,
2013-08-17 12:20:00,79.9,56.6,30.15,SE,135,6.9,6.9,45,0.00,,,0.00,WUHU216HW,2013-08-17 17:20:00,
2013-08-17 12:25:00,79.9,56.0,30.15,East,90,3.1,8.5,44,0.00,,,0.00,WUHU216HW,2013-08-17 17:25:00,
2013-08-17 12:30:00,80.3,56.4,30.15,ESE,113,4.7,10.1,44,0.00,,,0.00,WUHU216HW,2013-08-17 17:30:00,
2013-08-17 12:35:00,80.5,55.9,30.15,SE,135,8.5,11.4,43,0.00,,,0.00,WUHU216HW,2013-08-17 17:35:00,
2013-08-17 12:40:00,80.3,56.4,30.15,East,90,8.3,11.4,44,0.00,,,0.00,WUHU216HW,2013-08-17 17:40:00,
2013-08-17 12:45:00,79.9,56.0,30.14,SW,225,1.8,9.6,44,0.00,,,0.00,WUHU216HW,2013-08-17 17:45:00,
2013-08-17 12:50:00,80.5,57.7,30.14,SW,225,2.9,9.6,46,0.00,,,0.00,WUHU216HW,2013-08-17 17:50:00,
2013-08-17 12:55:00,81.4,56.7,30.14,SE,135,17.7,19.2,43,0.00,,,0.00,WUHU216HW,2013-08-17 17:55:00,
2013-08-17 13:00:00,80.8,55.5,30.14,SE,135,1.6,19.2,42,0.00,,,0.00,WUHU216HW,2013-08-17 18:00:00,
2013-08-17 13:05:00,80.8,56.2,30.14,SE,135,9.4,17.7,43,0.00,,,0.00,WUHU216HW,2013-08-17 18:05:00,
2013-08-17 13:10:00,81.0,56.3,30.14,SE,135,10.5,12.8,43,0.00,,,0.00,WUHU216HW,2013-08-17 18:10:00,
2013-08-17 13:15:00,80.8,55.0,30.14,ENE,68,14.3,30.9,41,0.00,,,0.00,WUHU216HW,2013-08-17 18:15:00,
2013-08-17 13:20:00,80.6,56.0,30.14,SE,135,9.8,30.9,43,0.00,,,0.00,WUHU216HW,2013-08-17 18:20:00,
2013-08-17 13:25:00,80.8,55.0,30.14,SE,135,7.6,14.3,41,0.00,,,0.00,WUHU216HW,2013-08-17 18:25:00,
2013-08-17 13:30:00,81.2,56.5,30.14,SE,135,4.0,13.4,43,0.00,,,0.00,WUHU216HW,2013-08-17 18:30:00,
2013-08-17 13:35:00,81.4,54.8,30.14,East,90,7.4,12.5,40,0.00,,,0.00,WUHU216HW,2013-08-17 18:35:00,
2013-08-17 13:40:00,80.3,53.8,30.14,NNE,23,5.4,9.6,40,0.00,,,0.00,WUHU216HW,2013-08-17 18:40:00,
2013-08-17 13:45:00,80.6,55.5,30.14,ESE,113,2.9,9.2,42,0.00,,,0.00,WUHU216HW,2013-08-17 18:45:00,
2013-08-17 13:50:00,81.2,55.9,30.14,ESE,113,8.5,17.0,42,0.00,,,0.00,WUHU216HW,2013-08-17 18:50:00,
2013-08-17 13:55:00,81.5,55.6,30.13,SSE,158,10.5,17.0,41,0.00,,,0.00,WUHU216HW,2013-08-17 18:55:00,
2013-08-17 14:00:00,81.9,55.9,30.13,South,180,2.5,10.5,41,0.00,,,0.00,WUHU216HW,2013-08-17 19:00:00,
2013-08-17 14:05:00,82.1,54.7,30.13,SE,135,7.6,14.3,39,0.00,,,0.00,WUHU216HW,2013-08-17 19:05:00,
2013-08-17 14:10:00,82.1,55.4,30.13,SE,135,8.3,14.3,40,0.00,,,0.00,WUHU216HW,2013-08-17 19:10:00,
2013-08-17 14:15:00,82.1,54.7,30.13,ESE,113,4.7,14.3,39,0.00,,,0.00,WUHU216HW,2013-08-17 19:15:00,
2013-08-17 14:20:00,80.8,54.4,30.13,NNE,23,6.5,16.6,40,0.00,,,0.00,WUHU216HW,2013-08-17 19:20:00,
2013-08-17 14:25:00,80.6,52.7,30.13,NE,45,6.3,16.6,38,0.00,,,0.00,WUHU216HW,2013-08-17 19:25:00,
2013-08-17 14:30:00,80.5,53.3,30.12,SSE,158,4.3,11.0,39,0.00,,,0.00,WUHU216HW,2013-08-17 19:30:00,
2013-08-17 14:35:00,80.8,53.6,30.13,SSE,158,3.4,11.0,39,0.00,,,0.00,WUHU216HW,2013-08-17 19:35:00,
2013-08-17 14:40:00,81.5,53.5,30.13,SSE,158,4.0,11.0,38,0.00,,,0.00,WUHU216HW,2013-08-17 19:40:00,
2013-08-17 14:45:00,82.1,53.1,30.13,East,90,5.6,10.5,37,0.00,,,0.00,WUHU216HW,2013-08-17 19:45:00,
2013-08-17 14:50:00,81.7,52.0,30.13,East,90,2.2,9.8,36,0.00,,,0.00,WUHU216HW,2013-08-17 19:50:00,
2013-08-17 14:55:00,82.1,53.9,30.13,ESE,113,5.1,6.5,38,0.00,,,0.00,WUHU216HW,2013-08-17 19:55:00,
2013-08-17 15:00:00,82.6,54.4,30.12,ESE,113,3.8,8.5,38,0.00,,,0.00,WUHU216HW,2013-08-17 20:00:00,
2013-08-17 15:05:00,82.8,55.4,30.12,SSW,203,6.5,9.4,39,0.00,,,0.00,WUHU216HW,2013-08-17 20:05:00,
2013-08-17 15:10:00,83.3,54.3,30.12,SW,225,5.4,9.4,37,0.00,,,0.00,WUHU216HW,2013-08-17 20:10:00,
2013-08-17 15:15:00,83.5,54.4,30.12,SE,135,4.7,7.6,37,0.00,,,0.00,WUHU216HW,2013-08-17 20:15:00,
2013-08-17 15:20:00,83.0,54.7,30.12,SSW,203,4.0,7.4,38,0.00,,,0.00,WUHU216HW,2013-08-17 20:20:00,
2013-08-17 15:25:00,83.2,54.9,30.12,East,90,4.5,7.4,38,0.00,,,0.00,WUHU216HW,2013-08-17 20:25:00,
2013-08-17 15:30:00,83.2,52.5,30.12,ESE,113,5.1,10.5,35,0.00,,,0.00,WUHU216HW,2013-08-17 20:30:00,
2013-08-17 15:35:00,83.0,52.3,30.12,SE,135,2.2,10.5,35,0.00,,,0.00,WUHU216HW,2013-08-17 20:35:00,
2013-08-17 15:40:00,83.0,51.6,30.12,East,90,2.2,8.5,34,0.00,,,0.00,WUHU216HW,2013-08-17 20:40:00,
2013-08-17 15:45:00,82.8,53.7,30.12,SE,135,6.3,6.3,37,0.00,,,0.00,WUHU216HW,2013-08-17 20:45:00,
2013-08-17 15:50:00,82.8,52.2,30.12,ENE,68,4.9,8.9,35,0.00,,,0.00,WUHU216HW,2013-08-17 20:50:00,
2013-08-17 15:55:00,82.6,53.6,30.11,SE,135,4.5,8.9,37,0.00,,,0.00,WUHU216HW,2013-08-17 20:55:00,
2013-08-17 16:00:00,82.8,53.7,30.11,South,180,3.1,7.6,37,0.00,,,0.00,WUHU216HW,2013-08-17 21:00:00,
2013-08-17 16:05:00,83.2,55.6,30.11,SSW,203,3.6,7.6,39,0.00,,,0.00,WUHU216HW,2013-08-17 21:05:00,
2013-08-17 16:10:00,83.5,52.8,30.11,SSW,203,3.4,8.9,35,0.00,,,0.00,WUHU216HW,2013-08-17 21:10:00,
2013-08-17 16:15:00,83.3,54.3,30.11,SSE,158,2.5,8.9,37,0.00,,,0.00,WUHU216HW,2013-08-17 21:15:00,
2013-08-17 16:20:00,83.2,54.9,30.11,SW,225,3.4,6.5,38,0.00,,,0.00,WUHU216HW,2013-08-17 21:20:00,
2013-08-17 16:25:00,83.3,55.0,30.11,SW,225,3.1,6.9,38,0.00,,,0.00,WUHU216HW,2013-08-17 21:25:00,
2013-08-17 16:29:00,83.3,54.3,30.11,South,180,21.3,21.3,37,0.00,,,0.00,WUHU216HW,2013-08-17 21:29:00,
2013-08-17 16:34:00,83.2,54.9,30.11,SSW,203,3.1,23.7,38,0.00,,,0.00,WUHU216HW,2013-08-17 21:34:00,
2013-08-17 16:39:00,83.2,54.9,30.11,SSE,158,8.1,23.7,38,0.00,,,0.00,WUHU216HW,2013-08-17 21:39:00,
2013-08-17 16:44:00,83.0,54.7,30.11,ESE,113,5.4,8.1,38,0.00,,,0.00,WUHU216HW,2013-08-17 21:44:00,
2013-08-17 16:49:00,82.8,54.5,30.11,ENE,68,4.0,8.1,38,0.00,,,0.00,WUHU216HW,2013-08-17 21:49:00,
2013-08-17 16:54:00,82.4,54.2,30.11,SE,135,4.7,8.5,38,0.00,,,0.00,WUHU216HW,2013-08-17 21:54:00,
2013-08-17 16:59:00,82.3,54.8,30.11,SSW,203,5.4,8.5,39,0.00,,,0.00,WUHU216HW,2013-08-17 21:59:00,
2013-08-17 17:04:00,81.7,53.6,30.11,SE,135,5.4,9.6,38,0.00,,,0.00,WUHU216HW,2013-08-17 22:04:00,
2013-08-17 17:09:00,81.7,54.4,30.11,SSW,203,1.6,9.6,39,0.00,,,0.00,WUHU216HW,2013-08-17 22:09:00,
2013-08-17 17:14:00,81.9,54.6,30.11,SSE,158,8.1,12.5,39,0.00,,,0.00,WUHU216HW,2013-08-17 22:14:00,
2013-08-17 17:19:00,81.7,54.4,30.11,SE,135,3.4,12.5,39,0.00,,,0.00,WUHU216HW,2013-08-17 22:19:00,
2013-08-17 17:24:00,81.5,54.2,30.11,East,90,7.4,9.4,39,0.00,,,0.00,WUHU216HW,2013-08-17 22:24:00,
2013-08-17 17:29:00,81.7,54.4,30.11,South,180,2.5,7.4,39,0.00,,,0.00,WUHU216HW,2013-08-17 22:29:00,
2013-08-17 17:34:00,81.7,55.2,30.11,SSE,158,1.3,6.9,40,0.00,,,0.00,WUHU216HW,2013-08-17 22:34:00,
2013-08-17 17:39:00,81.5,55.6,30.11,SE,135,14.3,14.3,41,0.00,,,0.00,WUHU216HW,2013-08-17 22:39:00,
2013-08-17 17:44:00,81.4,55.4,30.11,SSE,158,5.6,14.3,41,0.00,,,0.00,WUHU216HW,2013-08-17 22:44:00,
2013-08-17 17:49:00,81.0,55.1,30.10,SE,135,4.0,9.4,41,0.00,,,0.00,WUHU216HW,2013-08-17 22:49:00,
2013-08-17 17:54:00,81.0,55.1,30.10,SE,135,4.7,9.4,41,0.00,,,0.00,WUHU216HW,2013-08-17 22:54:00,
2013-08-17 17:59:00,80.8,54.4,30.10,ESE,113,3.6,8.7,40,0.00,,,0.00,WUHU216HW,2013-08-17 22:59:00,
2013-08-17 18:04:00,80.5,54.6,30.10,ESE,113,10.1,10.1,41,0.00,,,0.00,WUHU216HW,2013-08-17 23:04:00,
2013-08-17 18:09:00,79.9,54.2,30.10,SE,135,5.4,10.1,41,0.00,,,0.00,WUHU216HW,2013-08-17 23:09:00,
2013-08-17 18:14:00,79.6,54.5,30.10,ESE,113,6.3,10.1,42,0.00,,,0.00,WUHU216HW,2013-08-17 23:14:00,
2013-08-17 18:19:00,79.4,54.3,30.10,ESE,113,4.0,8.5,42,0.00,,,0.00,WUHU216HW,2013-08-17 23:19:00,
2013-08-17 18:24:00,79.4,55.5,30.10,ENE,68,5.6,7.4,44,0.00,,,0.00,WUHU216HW,2013-08-17 23:24:00,
2013-08-17 18:29:00,79.0,54.5,30.10,SE,135,6.9,11.9,43,0.00,,,0.00,WUHU216HW,2013-08-17 23:29:00,
2013-08-17 18:34:00,78.8,53.8,30.10,ESE,113,4.7,11.9,42,0.00,,,0.00,WUHU216HW,2013-08-17 23:34:00,
2013-08-17 18:39:00,78.5,54.1,30.10,ESE,113,6.9,8.9,43,0.00,,,0.00,WUHU216HW,2013-08-17 23:39:00,
2013-08-17 18:44:00,78.5,54.1,30.10,SE,135,5.6,11.4,43,0.00,,,0.00,WUHU216HW,2013-08-17 23:44:00,
2013-08-17 18:49:00,80.1,56.2,30.10,SE,135,3.6,11.4,44,0.00,,,0.00,WUHU216HW,2013-08-17 23:49:00,
2013-08-17 18:54:00,82.6,57.2,30.10,SE,135,4.5,8.1,42,0.00,,,0.00,WUHU216HW,2013-08-17 23:54:00,
2013-08-17 18:59:00,83.9,57.1,30.10,ESE,113,3.4,9.8,40,0.00,,,0.00,WUHU216HW,2013-08-17 23:59:00,
2013-08-17 19:04:00,84.4,57.6,30.10,SE,135,5.4,9.8,40,0.00,,,0.00,WUHU216HW,2013-08-18 00:04:00,
2013-08-17 19:09:00,84.4,57.6,30.10,SE,135,4.0,6.3,40,0.00,,,0.00,WUHU216HW,2013-08-18 00:09:00,
2013-08-17 19:14:00,85.0,58.1,30.10,SE,135,2.7,10.1,40,0.00,,,0.00,WUHU216HW,2013-08-18 00:14:00,
2013-08-17 19:19:00,84.6,57.8,30.10,SE,135,2.7,10.1,40,0.00,,,0.00,WUHU216HW,2013-08-18 00:19:00,
2013-08-17 19:24:00,84.6,57.8,30.10,SE,135,2.0,7.6,40,0.00,,,0.00,WUHU216HW,2013-08-18 00:24:00,
2013-08-17 19:29:00,83.2,56.4,30.10,ESE,113,8.7,8.7,40,0.00,,,0.00,WUHU216HW,2013-08-18 00:29:00,
2013-08-17 19:34:00,80.3,55.7,30.10,SE,135,4.0,8.7,43,0.00,,,0.00,WUHU216HW,2013-08-18 00:34:00,
2013-08-17 19:39:00,77.9,54.8,30.10,SE,135,3.8,8.7,45,0.00,,,0.00,WUHU216HW,2013-08-18 00:39:00,
2013-08-17 19:44:00,76.5,54.7,30.09,SE,135,2.9,7.6,47,0.00,,,0.00,WUHU216HW,2013-08-18 00:44:00,
2013-08-17 19:49:00,75.4,54.4,30.09,ESE,113,4.0,7.6,48,0.00,,,0.00,WUHU216HW,2013-08-18 00:49:00,
2013-08-17 19:54:00,74.5,54.1,30.09,SE,135,1.8,4.0,49,0.00,,,0.00,WUHU216HW,2013-08-18 00:54:00,
2013-08-17 19:59:00,73.8,54.0,30.09,SE,135,0.9,4.0,50,0.00,,,0.00,WUHU216HW,2013-08-18 00:59:00,
2013-08-17 20:04:00,73.1,53.8,30.09,ESE,113,1.1,3.6,51,0.00,,,0.00,WUHU216HW,2013-08-18 01:04:00,
2013-08-17 20:09:00,72.5,53.8,30.09,ESE,113,1.8,4.0,52,0.00,,,0.00,WUHU216HW,2013-08-18 01:09:00,
2013-08-17 20:14:00,71.8,54.2,30.09,ESE,113,1.1,4.0,54,0.00,,,0.00,WUHU216HW,2013-08-18 01:14:00,
2013-08-17 20:19:00,71.3,53.7,30.09,ESE,113,2.9,3.4,54,0.00,,,0.00,WUHU216HW,2013-08-18 01:19:00,
2013-08-17 20:24:00,70.7,53.7,30.09,ESE,113,0.4,4.7,55,0.00,,,0.00,WUHU216HW,2013-08-18 01:24:00,
2013-08-17 20:29:00,70.2,53.7,30.09,ESE,113,1.3,4.7,56,0.00,,,0.00,WUHU216HW,2013-08-18 01:29:00,
2013-08-17 20:34:00,69.8,53.5,30.09,ESE,113,1.6,3.1,56,0.00,,,0.00,WUHU216HW,2013-08-18 01:34:00,
2013-08-17 20:39:00,69.5,53.6,30.09,ESE,113,1.1,3.1,57,0.00,,,0.00,WUHU216HW,2013-08-18 01:39:00,
2013-08-17 20:44:00,68.9,53.6,30.09,ESE,113,1.8,2.2,58,0.00,,,0.00,WUHU216HW,2013-08-18 01:44:00,
2013-08-17 20:49:00,68.6,53.2,30.09,ESE,113,0.4,2.5,58,0.00,,,0.00,WUHU216HW,2013-08-18 01:49:00,
2013-08-17 20:54:00,68.2,53.4,30.10,ESE,113,0.9,2.5,59,0.00,,,0.00,WUHU216HW,2013-08-18 01:54:00,
2013-08-17 20:59:00,67.9,53.5,30.10,ESE,113,1.1,2.5,60,0.00,,,0.00,WUHU216HW,2013-08-18 01:59:00,
2013-08-17 21:04:00,67.5,53.2,30.10,ESE,113,1.8,2.9,60,0.00,,,0.00,WUHU216HW,2013-08-18 02:04:00,
2013-08-17 21:09:00,67.1,53.3,30.10,ESE,113,0.9,2.9,61,0.00,,,0.00,WUHU216HW,2013-08-18 02:09:00,
2013-08-17 21:14:00,66.8,53.4,30.10,SE,135,1.6,2.5,62,0.00,,,0.00,WUHU216HW,2013-08-18 02:14:00,
2013-08-17 21:19:00,66.4,53.0,30.10,SE,135,2.0,4.0,62,0.00,,,0.00,WUHU216HW,2013-08-18 02:19:00,
2013-08-17 21:24:00,66.1,53.1,30.10,SE,135,1.1,4.0,63,0.00,,,0.00,WUHU216HW,2013-08-18 02:24:00,
2013-08-17 21:29:00,65.9,52.9,30.10,SE,135,1.1,2.0,63,0.00,,,0.00,WUHU216HW,2013-08-18 02:29:00,
2013-08-17 21:34:00,65.7,53.6,30.10,ESE,113,1.8,3.6,65,0.00,,,0.00,WUHU216HW,2013-08-18 02:34:00,
2013-08-17 21:39:00,65.5,53.4,30.10,SE,135,1.3,3.6,65,0.00,,,0.00,WUHU216HW,2013-08-18 02:39:00,
2013-08-17 21:44:00,65.2,53.1,30.10,SSE,158,1.1,2.5,65,0.00,,,0.00,WUHU216HW,2013-08-18 02:44:00,
2013-08-17 21:49:00,65.0,54.2,30.10,SE,135,2.7,2.7,68,0.00,,,0.00,WUHU216HW,2013-08-18 02:49:00,
2013-08-17 21:54:00,64.8,54.9,30.10,ESE,113,8.1,8.1,70,0.00,,,0.00,WUHU216HW,2013-08-18 02:54:00,
2013-08-17 21:59:00,65.0,55.0,30.10,SE,135,4.7,8.5,70,0.00,,,0.00,WUHU216HW,2013-08-18 02:59:00,
2013-08-17 22:04:00,65.0,55.4,30.10,SSE,158,4.5,8.5,71,0.00,,,0.00,WUHU216HW,2013-08-18 03:04:00,
2013-08-17 22:09:00,64.8,54.5,30.10,SSE,158,1.6,4.7,69,0.00,,,0.00,WUHU216HW,2013-08-18 03:09:00,
2013-08-17 22:14:00,64.8,54.9,30.10,SE,135,7.8,7.8,70,0.00,,,0.00,WUHU216HW,2013-08-18 03:14:00,
2013-08-17 22:19:00,64.6,54.7,30.10,SE,135,2.5,7.8,70,0.00,,,0.00,WUHU216HW,2013-08-18 03:19:00,
2013-08-17 22:24:00,64.4,54.9,30.10,SE,135,2.9,7.8,71,0.00,,,0.00,WUHU216HW,2013-08-18 03:24:00,
2013-08-17 22:29:00,64.3,54.7,30.10,SSE,158,2.7,3.8,71,0.00,,,0.00,WUHU216HW,2013-08-18 03:29:00,
2013-08-17 22:34:00,64.1,54.2,30.10,SSW,203,0.9,3.4,70,0.00,,,0.00,WUHU216HW,2013-08-18 03:34:00,
2013-08-17 22:39:00,63.7,54.5,30.10,SE,135,1.8,2.9,72,0.00,,,0.00,WUHU216HW,2013-08-18 03:39:00,
2013-08-17 22:44:00,63.7,54.2,30.10,SW,225,0.0,1.8,71,0.00,,,0.00,WUHU216HW,2013-08-18 03:44:00,
2013-08-17 22:49:00,63.5,54.4,30.10,WSW,248,0.4,1.8,72,0.00,,,0.00,WUHU216HW,2013-08-18 03:49:00,
2013-08-17 22:54:00,63.7,54.9,30.10,SSE,158,1.3,2.0,73,0.00,,,0.00,WUHU216HW,2013-08-18 03:54:00,
2013-08-17 22:59:00,63.5,54.4,30.10,SE,135,1.6,2.2,72,0.00,,,0.00,WUHU216HW,2013-08-18 03:59:00,
2013-08-17 23:01:00,63.5,54.4,30.10,SE,135,0.4,2.2,72,0.00,,,0.00,WUHU216HW,2013-08-18 04:01:00,
2013-08-17 23:06:00,63.2,54.0,30.10,ESE,113,0.0,2.2,72,0.00,,,0.00,WUHU216HW,2013-08-18 04:06:00,
2013-08-17 23:11:00,63.0,53.8,30.10,South,180,2.2,2.2,72,0.00,,,0.00,WUHU216HW,2013-08-18 04:11:00,
2013-08-17 23:16:00,62.8,53.6,30.10,SE,135,1.1,2.2,72,0.00,,,0.00,WUHU216HW,2013-08-18 04:16:00,
2013-08-17 23:21:00,62.6,53.8,30.10,SE,135,0.4,2.0,73,0.00,,,0.00,WUHU216HW,2013-08-18 04:21:00,
2013-08-17 23:26:00,62.5,53.3,30.10,South,180,1.8,2.0,72,0.00,,,0.00,WUHU216HW,2013-08-18 04:26:00,
2013-08-17 23:31:00,62.3,53.1,30.10,SSW,203,1.1,2.0,72,0.00,,,0.00,WUHU216HW,2013-08-18 04:31:00,
2013-08-17 23:36:00,62.3,53.5,30.10,SSW,203,0.9,1.8,73,0.00,,,0.00,WUHU216HW,2013-08-18 04:36:00,
2013-08-17 23:41:00,62.3,53.5,30.10,SSW,203,1.1,1.6,73,0.00,,,0.00,WUHU216HW,2013-08-18 04:41:00,
2013-08-17 23:46:00,62.1,53.0,30.10,South,180,2.5,2.5,72,0.00,,,0.00,WUHU216HW,2013-08-18 04:46:00,
2013-08-17 23:51:00,61.9,52.8,30.11,SSE,158,1.1,2.5,72,0.00,,,0.00,WUHU216HW,2013-08-18 04:51:00,
2013-08-17 23:56:00,61.6,52.5,30.11,SSW,203,0.9,2.5,72,0.00,,,0.00,WUHU216HW,2013-08-18 04:56:00,